This is the latest recevied weather packets stored in our database for station/object K5KHP. If no packets are shown the sender has not sent any weather packets the latest 10 day(s).
| Time | Temp. | Humidity | Pressure | Rain* | Wind** | Luminosity | Snow |
|---|---|---|---|---|---|---|---|
| 1778089128 | 20° C | 62% | 1017.5 hPa | 0 mm | - | 678 W/m² | - |
| 1778088825 | 19.44° C | 64% | 1017.8 hPa | 0 mm | - | 670 W/m² | - |
| 1778088522 | 19.44° C | 66% | 1017.8 hPa | 0 mm | - | 620 W/m² | - |
| 1778088218 | 19.44° C | 65% | 1018 hPa | 0 mm | - | 641 W/m² | - |
| 1778087910 | 19.44° C | 65% | 1017.9 hPa | 0 mm | - | 602 W/m² | - |
| 1778087607 | 18.89° C | 66% | 1018 hPa | 0 mm | - | 565 W/m² | - |
| 1778087305 | 19.44° C | 66% | 1017.7 hPa | 0 mm | - | 537 W/m² | - |
| 1778087000 | 18.89° C | 68% | 1017.9 hPa | 0 mm | - | 534 W/m² | - |
| 1778086700 | 18.33° C | 69% | 1017.8 hPa | 0 mm | - | 525 W/m² | - |
| 1778086397 | 18.33° C | 69% | 1017.9 hPa | 0 mm | - | 520 W/m² | - |
| 1778086088 | 18.33° C | 69% | 1017.6 hPa | 0 mm | - | 483 W/m² | - |
| 1778085785 | 18.33° C | 69% | 1017.8 hPa | 0 mm | - | 475 W/m² | - |
| 1778085482 | 17.78° C | 70% | 1017.8 hPa | 0 mm | - | 474 W/m² | - |
| 1778085176 | 17.78° C | 70% | 1017.9 hPa | 0 mm | - | 457 W/m² | - |
| 1778084872 | 18.33° C | 71% | 1017.7 hPa | 0 mm | - | 432 W/m² | - |
| 1778084570 | 17.78° C | 71% | 1018 hPa | 0 mm | - | 405 W/m² | - |
| 1778084267 | 17.78° C | 70% | 1017.8 hPa | 0 mm | - | 392 W/m² | - |
| 1778083964 | 17.78° C | 70% | 1018 hPa | 0 mm | - | 383 W/m² | - |
| 1778083662 | 17.22° C | 72% | 1017.9 hPa | 0 mm | - | 349 W/m² | - |
| 1778083358 | 17.22° C | 71% | 1017.9 hPa | 0 mm | - | 330 W/m² | - |
| 1778083057 | 17.22° C | 72% | 1017.8 hPa | 0 mm | - | 286 W/m² | - |
| 1778082754 | 17.22° C | 71% | 1017.8 hPa | 0 mm | - | 275 W/m² | - |
| 1778081626 | 17.22° C | 72% | 1017.8 hPa | 0 mm | - | 238 W/m² | - |
| 1778081323 | 17.22° C | 71% | 1017.8 hPa | 0 mm | - | 224 W/m² | - |
| 1778081021 | 16.67° C | 72% | 1017.8 hPa | 0 mm | - | 232 W/m² | - |
* Rain latest hour (hover to see other rain measurements)
** Current wind speed in m/s (hover to see current wind gust speed)